Theta_e
297 289 287 287 291 293 293 292 293 293 291 291 289 288 288 288 289 292 293 293 291 290 289 291 291 291 293 294 296 296 295 294 294 294 294 296 297 298 298 298 298 298 299 301 298 299 299 299 299 298 297 297 296 295 294 293 293 292 292 292 292 292 293 293 292 292 291 290 290 289 290 290 290 290 290 289 289 289 290 290 290 290 289 289 289 289
296 288 288 292 294 294 292 293 293 292 292 291 289 288 288 288 288 293 294 294 291 290 288 290 291 292 293 294 295 295 292 293 295 295 295 295 296 297 298 298 298 299 299 297 296 296 296 297 296 295 295 295 293 293 294 293 292 292 292 292 292 292 292 293 293 292 292 292 291 291 290 290 289 289 289 289 289 289 290 290 290 289 289 289 289 288
290 288 291 294 295 293 292 292 292 292 291 290 289 288 286 287 290 293 292 293 292 289 289 290 288 290 292 293 295 294 294 296 297 297 297 298 297 297 298 298 298 298 297 294 295 295 296 296 295 295 295 295 295 293 293 293 292 292 291 292 292 292 292 292 292 292 291 291 291 291 289 290 288 288 289 289 289 289 289 289 289 289 289 288 288 288
286 289 294 295 294 293 293 292 291 290 289 288 288 286 286 289 287 287 289 289 289 290 283 284 286 289 291 293 293 295 295 296 298 298 298 298 297 297 298 299 299 297 295 295 294 294 294 295 294 293 293 294 294 293 293 292 292 292 292 291 292 291 292 292 292 292 291 291 290 288 289 289 288 287 288 288 288 288 288 288 289 288 288 288 287 287
289 291 294 295 295 294 293 293 290 287 288 289 289 289 288 288 289 288 289 289 287 288 289 288 287 288 290 291 293 295 296 296 297 297 297 297 298 299 300 299 299 298 296 294 292 292 293 293 292 293 293 293 293 292 292 292 292 292 291 291 292 291 292 292 292 292 290 290 288 288 288 288 287 287 286 286 285 287 288 288 287 288 288 288 287 287
290 292 292 293 293 293 292 290 289 288 287 289 290 290 290 290 289 289 289 288 286 284 287 288 283 285 287 290 292 293 290 291 294 294 294 295 296 297 296 297 299 298 296 295 294 294 294 294 292 291 291 292 292 292 293 292 292 292 292 291 291 291 291 291 291 291 290 290 289 287 286 285 285 285 285 285 286 286 287 287 288 287 288 288 287 287
290 293 294 292 291 290 290 289 289 291 289 288 286 290 291 290 289 287 287 288 281 282 286 288 281 282 284 286 289 289 289 291 292 292 294 295 296 296 297 297 297 296 294 292 293 293 292 292 291 291 291 292 292 292 293 292 292 292 292 291 291 291 291 291 291 290 290 289 289 288 287 287 287 286 286 287 287 287 287 287 287 287 287 287 287 286
292 290 291 292 291 290 287 287 290 291 289 287 287 289 289 288 287 288 288 288 285 284 285 288 283 281 284 287 288 290 290 290 292 293 293 295 295 295 296 297 296 295 295 294 293 293 293 293 292 291 291 292 292 292 291 292 291 291 291 291 291 291 291 291 291 290 290 289 289 288 287 287 287 287 286 287 287 287 287 286 286 286 286 286 286 286
290 288 288 289 288 287 288 291 293 292 290 289 287 290 290 290 289 288 287 284 282 281 282 283 285 282 283 285 290 290 288 288 289 292 293 295 295 296 297 297 297 295 295 295 293 292 292 292 292 292 291 292 291 290 291 291 291 291 291 291 290 290 290 290 290 290 290 290 289 288 288 287 287 287 287 287 287 286 286 286 286 285 285 286 286 285
291 290 290 291 289 288 292 289 290 292 290 289 289 289 288 289 287 288 284 284 280 278 280 280 284 281 283 289 286 285 287 287 289 292 294 295 295 296 297 297 297 293 294 295 295 294 293 293 292 292 290 289 290 291 291 291 291 290 290 290 290 289 289 289 290 290 290 289 289 288 288 287 286 286 285 285 285 285 285 285 285 285 285 285 285 284
290 291 293 292 289 292 287 285 287 289 291 290 289 289 283 282 283 281 281 279 280 278 281 283 284 284 281 284 286 285 285 288 291 291 292 293 293 295 296 296 298 294 294 295 294 292 292 291 291 289 289 290 289 289 290 290 290 290 290 290 289 289 289 289 289 289 289 289 289 288 288 287 286 285 285 284 284 284 284 284 284 284 284 284 284 284
289 290 290 288 291 288 288 288 287 288 288 291 287 283 282 284 279 280 278 280 276 278 281 285 284 285 279 281 285 289 288 292 292 291 293 293 294 295 295 296 296 294 294 294 292 290 290 289 289 288 288 288 289 288 288 289 289 289 289 289 289 288 289 289 289 289 289 289 289 288 288 287 287 286 285 285 284 284 284 284 284 284 284 283 283 283
285 287 289 292 292 293 288 289 284 281 285 287 282 283 280 275 277 273 275 272 273 278 279 283 285 280 282 288 284 287 288 289 291 294 294 294 294 295 294 295 295 292 293 293 292 290 290 290 289 288 288 288 288 289 289 289 289 289 289 289 289 288 288 288 288 289 289 289 288 288 287 287 287 286 286 285 285 285 284 284 283 283 283 282 282 282
283 285 288 289 291 292 291 286 282 283 284 285 284 280 278 274 271 270 269 270 274 280 280 281 282 283 287 286 291 293 295 293 293 293 293 293 294 294 294 294 292 291 293 293 292 291 290 290 290 289 288 288 288 288 289 289 289 289 289 289 289 289 288 288 288 288 288 288 288 288 287 287 287 286 286 285 285 285 285 285 284 283 283 282 282 282
279 284 286 288 284 290 293 292 290 289 284 287 286 286 283 280 270 268 273 276 278 280 277 281 279 276 277 283 288 294 296 296 294 293 293 293 293 294 291 291 291 289 289 291 291 291 291 291 290 289 288 288 288 289 288 289 289 289 289 288 288 288 288 288 288 288 288 288 288 287 287 287 286 286 286 286 286 285 284 284 284 283 283 283 282 282
285 285 287 293 289 291 290 294 294 287 283 283 283 287 280 280 280 281 283 278 276 274 277 276 280 278 284 288 288 289 290 292 293 294 294 293 293 290 291 291 290 289 290 290 290 290 290 290 289 288 288 288 287 288 288 288 289 288 289 288 288 288 288 288 288 288 288 288 287 287 286 286 286 286 286 285 285 285 285 284 284 283 283 282 282 282
283 281 285 290 288 291 291 292 291 292 280 282 285 281 286 288 286 282 281 281 277 276 279 283 281 284 286 291 290 294 293 293 293 293 292 292 292 291 292 290 288 290 289 289 290 290 289 286 287 288 287 287 287 287 287 288 289 289 289 288 288 288 288 287 287 288 287 287 286 286 286 286 286 286 285 285 284 284 284 284 283 283 282 282 281 281
285 287 291 288 288 290 285 288 289 290 289 283 280 284 287 286 284 282 274 275 275 275 278 283 281 283 280 280 283 287 287 289 291 292 293 293 293 290 292 290 290 290 289 288 287 287 288 288 288 287 287 287 287 288 287 288 289 289 288 288 287 287 286 287 287 287 287 286 286 286 285 286 286 285 285 285 284 284 283 283 282 282 281 281 281 281
291 284 289 287 289 288 288 291 288 289 288 284 282 287 285 278 278 281 275 276 275 276 278 281 282 282 282 284 285 286 287 291 292 292 290 289 289 291 289 288 289 288 287 288 288 287 287 287 287 287 287 287 287 287 287 287 288 288 287 287 287 287 287 287 287 286 286 286 286 286 285 285 285 285 285 284 284 283 283 282 282 281 281 280 280 280
290 284 286 287 288 288 286 286 283 284 288 288 288 285 284 281 279 276 282 279 281 278 279 280 283 281 288 284 287 286 288 290 290 289 287 289 288 288 287 287 288 288 288 288 288 288 288 288 288 288 287 287 287 286 286 286 287 287 287 287 287 287 286 285 285 286 286 286 286 285 285 284 285 284 284 283 283 282 282 282 281 281 280 280 280 280
287 288 282 287 286 287 283 283 282 286 284 284 285 281 281 281 282 282 283 283 282 280 279 278 278 283 289 286 287 287 288 288 288 288 287 288 288 287 286 288 289 288 288 288 288 288 288 288 288 287 287 287 285 284 284 285 286 287 287 286 286 286 286 285 286 286 286 285 285 284 284 284 284 283 283 282 282 282 282 281 281 281 280 280 280 279
287 285 284 284 282 283 285 287 287 288 290 288 288 286 287 284 281 280 279 286 282 281 279 279 278 285 291 290 289 287 290 291 290 289 290 289 288 289 289 286 288 289 288 288 288 288 288 288 288 286 284 283 284 285 285 286 286 286 286 287 287 286 286 286 286 285 286 285 285 284 284 283 283 282 282 282 281 282 281 281 281 280 279 279 279 279
290 287 286 283 285 286 289 290 288 289 288 287 288 284 288 286 285 283 278 281 281 281 284 284 281 283 294 290 292 292 290 291 291 291 291 290 288 289 290 288 286 287 288 290 289 288 288 288 288 288 288 287 286 286 285 285 286 286 287 287 286 286 286 286 286 286 285 284 284 283 283 282 282 281 281 281 281 281 280 280 280 280 279 279 278 278
293 286 283 283 287 289 291 290 287 288 288 286 286 286 286 284 285 284 284 283 281 281 282 282 279 283 292 292 290 291 288 288 290 289 290 291 289 287 287 289 289 288 288 288 289 288 288 285 285 285 285 286 286 285 285 285 286 286 286 287 286 286 286 286 285 285 284 283 283 282 282 281 281 280 280 280 280 280 279 279 279 279 279 278 278 278
286 285 283 279 280 283 285 288 289 285 286 284 283 287 289 289 287 286 286 285 282 283 283 281 276 282 288 287 288 291 292 292 292 293 290 290 289 288 288 288 288 289 289 288 288 290 288 286 285 286 287 287 287 287 286 286 286 286 286 286 286 286 286 286 285 284 283 283 282 281 281 281 281 280 280 280 280 279 279 278 278 278 278 278 277 277
288 285 284 278 276 274 275 277 279 283 283 282 284 284 287 287 286 284 281 283 279 283 284 281 281 286 291 290 292 293 293 294 294 294 295 293 290 291 290 290 290 289 290 290 289 288 290 290 289 287 287 288 288 287 287 286 286 286 286 286 287 286 285 285 284 284 283 283 282 281 281 281 280 280 280 280 279 279 278 278 278 278 278 278 277 277
286 285 285 284 282 280 283 285 287 286 283 282 283 284 283 284 284 285 284 281 280 283 283 284 285 285 286 289 291 292 293 293 293 294 294 294 295 296 295 291 289 290 290 290 289 290 290 289 289 289 289 289 289 288 288 287 286 286 286 286 286 286 286 285 284 283 283 282 282 282 281 281 281 280 280 280 279 279 278 278 278 278 277 277 277 276
284 283 285 285 284 285 287 287 289 289 285 285 284 284 286 285 285 284 282 280 285 282 278 285 286 284 285 288 290 291 293 293 294 294 294 294 294 294 293 292 292 290 290 288 287 289 290 291 291 290 290 289 288 288 287 287 287 287 286 286 286 286 285 285 284 283 283 282 282 282 281 281 281 280 280 279 278 278 278 278 278 277 277 277 276 276
283 283 285 286 284 286 287 287 288 287 287 286 286 285 285 286 285 283 284 285 285 281 279 284 285 283 286 288 291 292 293 293 294 294 295 296 295 294 292 291 293 294 294 290 289 291 291 291 292 291 290 289 287 286 286 286 286 286 286 286 286 285 285 285 284 283 283 282 282 282 281 281 280 280 279 278 278 278 278 277 277 277 276 276 275 275
286 283 286 286 284 285 286 286 287 286 286 286 286 286 286 286 285 285 285 286 286 284 286 286 286 286 288 289 291 293 294 294 295 296 296 294 294 294 293 293 293 294 294 291 290 292 293 293 293 292 290 289 287 287 286 286 285 285 285 286 285 285 285 284 283 283 282 282 282 281 280 280 279 279 278 278 277 277 277 277 276 275 275 275 274 273
289 285 290 287 284 284 286 287 287 286 286 284 286 286 287 287 286 286 286 286 286 285 286 286 285 285 290 293 293 294 295 295 295 294 294 295 295 294 293 293 293 294 293 291 292 293 294 293 293 292 290 288 288 287 287 287 286 286 286 286 285 285 284 284 283 283 282 282 282 281 280 279 279 278 278 278 277 277 276 276 275 274 274 272 271 271
288 286 290 287 282 281 286 285 285 286 285 284 284 285 286 286 284 286 285 286 285 284 285 285 283 284 290 293 294 294 294 293 293 293 294 295 295 295 294 293 293 292 290 291 292 292 293 293 293 292 291 289 289 288 287 287 286 285 285 285 285 285 284 283 283 282 282 282 281 280 280 279 278 277 277 277 277 276 275 274 273 273 272 271 271 271
285 284 284 284 281 281 286 286 285 284 283 280 281 285 287 288 288 288 289 289 288 288 284 282 283 289 291 293 292 292 293 293 293 293 293 294 295 295 294 294 294 294 294 292 292 292 294 293 293 293 293 292 291 289 288 288 286 285 285 285 285 284 282 283 283 282 281 281 280 279 279 278 277 277 276 276 276 275 273 273 273 272 271 271 272 271
286 285 284 286 280 281 285 285 285 281 274 276 287 290 290 287 287 286 286 287 289 289 287 290 290 292 293 292 291 292 292 293 294 294 295 294 293 294 294 295 295 295 294 293 293 295 295 294 294 293 293 293 293 292 291 288 287 287 286 285 283 282 282 282 282 281 280 280 279 279 278 277 277 277 276 275 274 273 272 272 272 271 271 271 270 270
286 286 284 286 282 280 285 284 280 274 276 287 290 291 292 291 290 289 289 290 290 291 291 290 290 291 292 293 293 293 294 295 295 295 295 293 292 293 294 295 296 295 294 293 294 294 292 292 292 292 292 292 292 291 289 287 287 286 283 283 282 282 281 281 281 280 280 279 279 278 278 277 276 276 275 274 273 272 272 272 271 270 270 269 269 269
286 286 285 284 284 284 281 280 273 275 286 287 290 290 292 292 290 289 286 289 291 291 291 289 291 292 293 293 294 294 294 294 295 295 294 295 295 294 294 294 295 295 294 293 293 293 292 291 292 292 293 293 290 289 288 288 286 284 284 283 283 282 281 281 280 280 279 279 278 278 277 277 276 275 274 273 272 271 272 271 270 269 269 269 269 269
289 287 286 281 286 278 280 280 279 286 285 283 284 285 288 285 286 285 281 285 291 291 291 290 291 292 293 292 294 293 293 293 291 291 294 294 292 293 293 293 294 295 295 295 295 294 294 293 293 293 292 290 290 288 286 285 284 284 282 281 281 281 280 280 279 279 279 278 278 277 277 277 275 274 272 272 271 271 271 270 269 269 269 268 269 268
290 285 286 282 281 286 279 278 279 278 275 282 290 291 293 292 292 291 287 285 288 283 287 286 284 285 285 286 286 287 288 286 286 287 288 289 290 290 291 291 292 292 292 292 293 292 291 291 291 290 290 290 288 287 285 283 283 282 281 281 280 280 279 279 279 279 278 278 278 277 276 276 275 273 272 271 271 270 270 270 269 269 269 268 267 267
288 289 287 283 281 283 280 276 277 276 279 285 282 286 290 293 291 290 285 281 284 284 287 287 285 285 285 285 286 287 285 282 282 284 288 289 289 289 289 290 290 291 290 289 288 288 288 287 286 286 285 285 285 281 281 281 282 281 281 280 279 279 279 279 279 278 278 278 277 276 276 275 274 273 271 271 271 270 269 269 268 268 268 268 267 267
281 284 284 280 279 281 281 278 276 281 280 278 281 284 286 287 290 285 276 276 279 281 287 286 285 285 284 285 286 285 283 280 281 285 288 288 288 288 288 289 289 289 289 289 289 287 284 283 284 284 282 282 280 278 279 279 280 280 280 279 278 278 278 278 279 279 278 277 276 275 275 274 273 272 271 271 270 270 269 269 267 267 267 267 267 267
275 277 280 277 280 281 281 279 282 283 283 281 282 285 284 286 285 279 274 273 278 282 286 285 284 285 285 285 284 282 284 285 287 288 288 287 287 287 289 289 289 288 288 288 287 287 287 284 283 283 283 281 279 278 277 278 279 278 277 277 277 278 279 279 277 277 276 275 274 274 274 273 273 271 271 271 270 269 268 268 267 267 266 266 266 266
273 275 277 279 276 275 275 274 276 282 280 282 283 284 283 281 277 271 276 281 282 283 285 285 283 284 285 284 283 285 285 287 287 288 287 286 286 287 288 288 289 290 289 287 286 286 287 288 287 282 279 278 278 278 277 278 278 276 276 275 277 278 276 276 275 275 274 274 274 273 272 272 272 271 270 270 269 268 267 267 267 266 266 266 266 265
273 273 270 272 274 275 274 273 272 271 280 284 281 280 282 273 273 280 281 282 284 284 283 283 284 283 285 283 284 285 285 286 286 286 286 286 286 286 287 287 288 288 288 288 288 287 283 285 286 284 279 277 276 277 278 278 278 276 276 276 278 275 275 274 274 274 273 272 272 271 271 270 270 270 269 268 268 267 266 266 265 265 265 265 265 265
277 270 270 273 277 271 272 270 270 277 279 283 280 273 278 279 283 283 282 280 282 284 283 283 283 284 284 283 283 284 285 285 285 286 286 286 286 287 287 287 288 288 287 286 284 284 281 284 283 282 278 275 276 276 278 278 279 277 276 278 275 274 273 274 273 273 272 271 271 270 270 269 269 268 268 267 267 266 265 265 264 264 264 265 264 264
281 274 277 273 278 275 271 276 280 282 281 282 281 280 281 283 284 283 283 282 281 281 282 281 281 282 283 283 283 284 283 284 284 285 284 285 286 287 287 288 288 288 288 288 288 285 281 284 285 284 279 275 275 276 277 278 279 278 277 277 274 275 274 273 272 272 271 270 270 269 269 268 268 267 266 266 266 265 265 264 264 264 264 265 265 264
277 278 279 276 274 280 279 279 280 280 280 280 282 283 282 283 283 281 280 278 279 280 280 280 280 282 282 283 282 282 282 282 283 283 284 285 286 287 288 288 288 288 288 287 286 286 286 282 279 278 280 277 273 275 276 277 278 279 280 277 275 275 274 273 272 271 270 270 269 269 268 267 266 266 266 266 266 266 265 264 264 264 264 265 264 264
276 277 275 273 275 272 267 277 277 278 280 280 280 282 282 282 279 279 277 278 278 279 279 280 281 281 282 282 281 280 280 281 281 282 283 284 285 285 286 286 286 286 286 286 287 286 286 284 283 280 278 279 276 274 275 275 277 279 277 274 275 274 272 271 271 270 270 269 269 268 267 267 266 265 265 265 265 265 265 265 265 265 264 264 264 265
270 278 272 272 272 270 270 275 277 279 279 279 278 278 278 278 278 278 277 277 278 278 279 279 280 280 280 279 279 279 279 280 280 281 282 283 284 284 284 284 284 285 286 286 287 286 286 285 283 282 281 280 281 277 276 276 277 277 275 273 273 272 271 271 271 271 270 269 268 266 267 266 265 265 265 265 265 264 264 264 265 265 265 265 265 265
274 275 267 271 271 273 275 276 276 275 276 277 276 275 276 275 276 276 276 276 277 277 278 278 279 278 278 277 278 278 277 278 279 280 280 281 281 281 282 283 284 284 285 285 286 286 286 286 285 284 283 283 284 281 277 277 277 276 276 274 272 271 271 271 271 270 269 268 267 266 266 266 265 265 265 265 264 265 265 264 264 265 266 268 268 268
273 269 274 272 268 268 269 271 273 269 270 275 274 273 273 274 274 274 274 274 275 275 275 275 275 276 276 277 276 276 275 275 276 277 277 278 278 279 280 281 282 283 284 285 286 286 285 285 284 284 284 285 285 282 280 279 278 276 276 274 273 272 271 270 270 269 268 267 266 266 265 265 265 265 265 264 264 263 264 267 270 268 266 266 270 271
272 273 273 270 269 268 274 272 274 274 273 274 275 273 273 273 273 271 271 272 273 273 273 272 272 272 273 273 274 273 273 273 273 275 274 275 276 277 278 278 279 279 280 281 281 282 283 284 284 283 283 283 283 281 280 279 278 276 274 273 273 272 272 270 269 269 268 267 266 265 265 265 265 265 265 264 264 264 264 265 268 271 271 271 272 273
Wind_Speed
6 8 9 10 15 18 8 11 16 14 8 9 7 7 12 11 10 12 12 6 5 4 10 15 17 17 19 19 19 17 10 11 13 12 13 13 14 15 17 16 15 15 20 12 8 10 13 14 13 11 11 11 11 13 15 15 15 16 17 16 16 14 14 13 12 12 12 12 8 7 10 10 8 9 8 7 7 7 7 9 8 8 8 7 7 6
5 8 10 16 20 10 6 11 11 11 9 11 11 10 13 7 14 14 11 4 3 5 6 11 16 16 19 18 16 10 6 14 15 14 14 16 15 15 20 19 16 20 13 6 4 6 7 8 8 9 10 12 14 12 15 18 18 16 16 18 16 13 14 14 14 13 12 12 13 13 13 10 9 9 10 9 8 8 8 9 8 8 8 8 7 7
8 14 13 19 11 2 6 7 10 12 10 10 11 11 10 9 11 13 10 10 7 5 14 10 14 15 17 17 15 12 13 14 14 14 17 17 15 14 17 18 18 16 15 7 6 6 9 10 10 11 11 13 17 17 18 16 16 16 15 14 15 14 14 13 13 12 12 9 7 8 7 9 7 3 4 5 5 7 8 8 8 7 8 8 7 7
8 8 17 8 7 9 10 7 6 6 6 7 9 9 13 9 5 13 5 3 2 8 5 5 11 10 10 11 15 13 11 14 17 17 18 15 14 18 20 18 17 15 13 12 9 10 9 11 11 10 11 13 11 13 12 14 17 14 14 13 14 14 13 13 13 12 9 8 6 4 6 5 4 5 6 5 5 6 7 8 8 7 8 8 8 8
18 3 9 11 10 11 15 11 7 6 12 11 14 13 10 10 13 13 11 2 3 4 4 8 12 13 9 16 15 15 14 15 17 16 16 14 14 18 17 14 17 19 13 10 6 5 8 10 13 15 13 11 13 14 15 15 16 13 16 16 16 15 15 13 13 12 10 9 8 7 7 5 6 5 5 6 6 8 8 7 8 10 9 9 9 8
16 7 3 9 10 12 12 11 8 7 13 14 14 12 17 14 13 13 10 6 5 7 4 4 10 15 9 19 20 12 5 9 12 13 16 16 16 16 16 17 20 13 8 12 13 14 14 14 9 7 10 13 13 15 16 16 16 14 14 14 14 12 12 13 13 13 12 12 12 12 11 11 9 10 10 13 15 13 13 14 9 7 8 9 9 8
6 5 7 6 9 10 9 10 6 11 15 14 6 13 15 11 11 7 7 2 7 8 5 3 7 17 5 7 10 8 8 14 8 9 14 14 14 14 16 15 15 11 8 6 7 8 10 10 11 11 13 15 15 14 12 13 14 14 15 15 16 14 12 12 13 14 12 12 12 16 16 15 15 15 12 9 8 10 9 8 11 10 9 9 10 8
5 4 9 9 9 9 6 9 8 16 11 12 3 9 5 6 6 7 6 8 10 1 4 1 2 6 22 10 6 12 13 13 13 13 14 15 14 14 15 16 13 9 10 12 12 12 14 15 17 18 17 15 16 13 12 12 12 15 15 15 15 12 12 12 13 14 14 15 14 14 13 13 13 14 14 13 12 9 8 10 10 9 9 9 9 9
4 2 7 10 8 9 11 18 9 9 8 5 1 5 6 8 7 2 3 4 3 5 11 8 3 4 16 7 12 13 11 11 12 14 16 17 15 15 16 17 16 9 11 12 12 13 14 15 15 14 14 12 8 10 14 14 14 12 12 13 13 13 13 12 15 16 15 14 15 15 13 13 11 10 8 8 8 9 9 10 8 8 8 8 8 9
2 2 5 7 8 11 14 4 5 10 10 4 3 3 3 2 2 0 1 1 3 2 17 5 6 7 21 15 5 2 7 11 12 16 18 16 12 16 17 15 14 7 6 10 14 15 15 14 13 9 6 7 11 10 9 10 10 11 11 13 15 14 13 13 16 16 16 15 14 14 15 16 12 9 7 8 10 9 9 10 10 9 9 8 8 8
5 2 3 4 8 5 1 0 1 4 5 2 3 1 4 5 2 2 3 2 4 9 12 11 7 6 16 6 12 9 7 12 12 9 8 8 9 13 15 12 13 8 8 10 10 8 7 5 6 7 11 10 6 7 9 10 11 11 12 14 15 16 13 13 16 16 18 16 15 16 16 16 15 13 12 12 11 10 10 11 11 10 9 8 8 7
6 1 2 4 3 4 2 1 3 1 1 1 1 1 4 8 5 2 3 3 3 16 4 14 13 13 13 3 2 7 4 11 14 12 12 11 13 15 13 12 13 8 8 7 7 7 7 6 6 6 9 10 10 8 10 10 11 12 13 13 15 13 14 14 15 16 16 16 16 15 15 16 15 16 14 16 16 15 15 13 12 10 9 9 7 7
9 14 5 3 2 9 1 1 3 4 3 3 3 5 2 6 4 2 3 1 5 15 2 12 15 1 23 17 3 7 7 6 7 10 13 13 13 13 11 12 12 5 6 9 9 9 9 12 13 12 10 9 12 14 14 13 13 12 13 15 16 17 16 16 15 17 17 15 15 15 15 15 13 15 15 15 14 14 15 13 13 12 12 9 9 9
9 5 7 6 1 6 7 9 1 1 8 6 8 7 5 5 4 5 4 4 6 8 4 6 2 13 14 5 10 18 19 12 11 13 10 11 13 13 12 11 6 5 7 9 10 11 12 13 12 12 13 13 12 12 14 13 12 12 12 14 17 18 16 14 14 16 16 17 15 14 13 13 12 13 13 13 13 14 13 13 15 15 14 14 14 13
6 11 8 9 5 6 14 15 17 14 8 14 4 13 12 10 5 3 5 11 11 11 2 2 7 8 4 7 6 16 16 13 10 9 10 11 11 11 8 3 1 5 5 7 10 13 14 14 13 13 13 12 13 14 14 13 13 12 12 13 16 14 15 15 17 14 16 15 14 13 12 11 10 12 12 12 11 12 13 12 13 12 11 12 11 12
12 15 6 18 3 11 13 15 14 4 2 3 2 1 3 8 4 9 11 6 4 4 7 4 8 4 7 3 4 5 6 9 8 12 12 14 9 7 5 5 4 5 6 7 8 8 8 10 10 9 10 12 11 13 12 13 13 13 15 15 17 18 17 16 15 15 16 15 13 12 13 14 12 10 9 8 9 11 12 13 13 13 12 10 10 8
3 10 1 6 4 13 16 8 7 11 6 3 8 7 14 3 5 5 5 5 1 2 16 5 6 9 7 13 6 12 10 13 9 9 8 9 11 9 8 6 5 5 6 7 9 9 9 6 7 10 11 11 10 11 14 16 17 20 18 17 18 17 13 15 16 16 14 14 13 15 14 13 13 14 15 14 13 13 11 11 11 11 11 9 9 9
9 10 1 6 5 6 1 0 1 3 4 8 2 9 1 3 4 3 5 2 3 8 10 8 15 14 6 13 4 8 8 9 11 14 16 15 12 9 11 6 7 7 5 3 4 5 7 9 11 10 9 11 14 16 16 18 16 15 15 16 17 15 17 17 17 16 15 15 15 15 16 16 16 15 14 11 12 11 11 10 10 9 10 11 10 10
5 12 9 2 3 3 2 1 6 2 3 4 5 2 6 4 4 3 3 5 6 9 8 10 15 12 9 13 4 6 8 15 17 14 10 7 8 12 6 3 2 2 3 6 7 7 8 9 10 11 14 13 11 11 12 11 11 10 11 13 15 18 20 17 13 12 12 14 13 14 16 16 14 13 12 10 10 10 12 13 12 12 11 10 10 11
1 8 3 3 2 1 2 3 9 5 1 2 2 1 0 1 2 4 8 3 4 14 7 12 12 15 7 2 3 5 5 11 14 9 6 10 6 2 1 3 5 6 6 6 7 7 8 9 11 13 14 14 16 15 12 11 9 12 14 13 14 13 9 9 13 15 16 16 14 12 11 12 13 11 12 12 12 13 13 13 12 12 12 13 11 11
6 1 12 1 4 1 2 3 6 8 8 6 5 4 2 2 3 3 3 5 8 9 10 10 13 13 12 5 3 1 4 4 8 10 3 1 2 4 4 6 7 7 7 8 8 9 10 11 11 11 9 8 5 5 6 9 14 15 10 11 13 16 16 16 16 14 15 12 13 13 14 14 12 12 10 10 12 12 11 10 11 12 11 11 12 12
3 1 9 2 3 4 6 2 9 9 10 10 13 14 15 10 6 7 11 2 4 7 8 8 14 8 10 5 6 4 1 6 2 0 6 6 5 3 2 5 5 5 8 7 8 9 10 10 10 7 5 5 6 8 10 12 9 10 14 17 15 12 12 15 16 16 17 14 13 14 13 11 9 9 8 10 10 12 11 11 11 11 11 14 12 13
2 2 4 7 5 8 10 10 5 6 4 2 1 5 6 7 6 8 14 6 4 5 5 10 12 12 12 2 7 8 4 5 1 2 6 3 4 5 4 3 3 3 3 6 9 10 10 11 12 13 13 14 15 13 11 10 13 16 16 13 11 14 17 18 18 14 11 11 12 14 11 9 10 10 9 10 9 10 9 9 8 9 13 12 11 10
10 3 3 5 5 6 13 8 1 1 3 4 3 3 2 6 8 11 10 4 5 1 8 8 12 8 11 10 5 8 2 4 6 5 5 8 8 5 3 2 3 5 6 7 7 6 8 5 3 4 7 10 10 12 14 15 15 14 12 14 15 17 18 14 12 11 11 11 11 10 10 11 10 10 11 12 10 10 8 7 7 7 9 10 10 12
3 1 3 4 7 10 11 11 14 2 2 3 4 7 10 10 6 6 4 1 9 8 13 11 16 7 7 4 3 11 13 9 10 12 7 7 6 6 6 6 6 7 8 7 8 10 5 5 8 11 12 12 13 13 12 13 14 14 15 13 14 16 16 12 9 10 11 11 12 11 13 12 12 13 13 13 11 12 10 9 8 7 9 9 10 10
5 4 3 9 10 11 10 11 12 13 8 2 2 4 5 8 9 3 8 7 13 10 15 13 14 14 12 7 15 17 19 20 16 12 11 10 8 8 9 10 10 9 10 10 7 3 8 12 11 10 10 11 12 12 13 14 15 15 14 15 16 15 11 13 12 12 12 12 13 13 14 14 13 15 15 14 13 13 12 11 11 10 8 9 11 10
3 5 11 13 15 16 17 15 6 1 2 7 6 6 7 4 2 3 3 5 12 10 13 12 17 17 10 12 19 24 22 21 20 17 15 12 13 18 17 11 9 9 9 10 8 7 5 5 9 12 13 13 14 14 14 15 15 15 15 16 15 15 15 14 13 14 14 14 15 13 14 15 16 14 14 14 12 11 11 12 12 11 11 10 10 11
3 6 15 21 23 20 18 19 19 17 17 17 15 17 14 10 11 11 8 11 6 8 16 12 16 13 12 14 20 23 23 23 18 16 15 14 16 15 14 11 9 9 9 6 4 6 8 11 11 11 13 13 13 14 13 12 14 16 17 18 16 15 14 12 14 15 16 15 14 15 16 16 13 13 13 11 11 11 12 12 12 12 10 10 11 11
7 14 16 15 20 21 22 22 22 21 19 21 22 20 20 20 19 17 17 18 17 16 21 15 12 15 16 17 19 24 26 23 21 23 23 22 17 15 11 8 13 16 15 8 7 9 9 10 11 13 13 13 12 12 14 13 13 12 11 12 11 12 15 14 14 14 15 14 15 16 14 11 10 10 11 12 12 12 13 13 12 11 10 10 9 8
2 10 7 16 19 17 19 22 23 25 23 23 23 24 23 21 22 23 26 27 27 25 21 19 21 26 20 18 22 25 21 19 22 23 23 21 21 20 15 14 18 19 18 13 9 11 12 12 14 14 13 13 13 15 14 14 13 14 16 16 15 15 14 12 14 15 15 15 16 13 11 12 11 11 11 12 13 13 12 12 11 11 10 10 9 9
13 11 13 18 16 18 19 21 21 25 24 25 24 23 23 22 23 28 27 26 24 24 23 28 31 30 23 27 28 25 22 19 19 24 28 29 27 22 17 18 20 17 14 10 12 13 12 13 14 14 13 14 15 16 16 16 16 15 16 14 13 15 13 14 14 14 15 16 13 12 11 12 12 12 13 13 11 11 12 12 11 11 11 10 10 11
10 14 12 13 13 15 15 22 23 23 23 25 23 21 21 24 26 23 21 21 19 24 27 27 23 21 22 25 24 24 25 25 26 28 28 27 27 23 19 19 19 12 10 14 13 12 13 14 13 13 14 15 16 16 15 14 13 11 13 13 14 13 11 13 13 15 15 13 11 12 13 12 12 12 12 12 13 13 12 12 12 12 12 12 12 11
4 4 8 10 17 18 16 20 21 21 19 19 20 22 28 29 26 23 20 18 21 24 23 20 24 22 23 19 22 22 23 24 24 25 26 28 26 22 19 19 19 18 15 14 12 13 16 16 15 16 16 15 15 14 15 15 12 13 14 14 15 9 12 14 14 14 12 12 13 13 13 12 13 13 13 14 13 13 13 15 15 14 14 15 13 11
5 10 11 4 10 9 12 18 13 14 18 18 16 27 27 28 27 29 25 26 29 23 21 21 24 21 21 19 22 24 24 24 22 21 20 17 15 16 18 19 20 19 14 13 15 17 17 13 12 13 14 15 15 15 16 13 15 17 14 11 7 12 13 13 12 12 12 12 12 13 13 13 14 14 14 13 13 13 14 15 15 13 11 11 11 13
11 10 11 6 8 9 7 10 12 20 19 5 15 20 26 31 31 31 30 29 28 27 29 28 27 25 26 24 23 23 23 22 19 19 17 13 11 14 19 20 21 19 14 13 16 14 11 12 12 11 11 12 13 11 8 7 11 7 7 11 13 13 13 13 13 11 12 13 13 12 13 14 14 14 13 13 13 14 14 14 13 14 13 13 14 14
16 15 9 6 6 7 7 8 15 15 1 2 6 15 17 24 25 25 28 27 29 28 28 27 27 26 24 24 24 22 21 20 18 15 15 17 16 16 17 18 21 20 16 12 12 12 11 11 14 15 15 13 8 8 8 11 9 9 10 9 13 12 12 12 12 12 11 12 13 14 14 15 14 14 14 15 15 16 16 15 15 16 13 12 10 9
19 15 12 14 10 16 13 16 23 11 15 4 3 5 11 17 15 19 21 23 24 17 16 21 25 25 24 22 21 19 17 16 14 13 10 12 17 19 17 17 18 20 19 14 11 13 12 11 13 14 11 7 8 8 10 7 8 9 8 10 10 12 11 12 13 13 14 14 14 14 14 15 15 15 15 16 17 17 16 16 14 13 12 13 13 13
12 14 9 15 8 14 18 16 14 13 15 11 17 15 19 22 20 21 16 16 11 15 14 18 18 19 19 19 19 17 7 6 11 8 9 15 15 18 17 14 15 16 16 15 13 10 8 8 8 8 6 8 8 8 5 7 9 10 9 9 9 11 11 12 14 14 14 15 14 15 14 14 15 16 16 16 18 17 15 13 12 13 12 14 14 13
9 12 15 17 16 11 16 15 14 12 9 9 15 17 15 13 13 10 8 13 10 19 14 13 16 14 13 15 16 15 12 6 5 8 11 14 15 12 14 15 13 13 12 12 9 11 12 10 5 4 3 3 3 2 3 5 7 8 8 8 10 10 11 13 13 13 15 15 13 14 14 14 15 16 17 17 16 15 16 16 15 12 10 9 10 11
10 4 7 14 18 16 17 19 18 9 8 12 14 15 16 16 12 2 13 4 18 19 10 12 14 13 12 13 13 10 10 8 9 11 13 14 11 10 8 12 14 14 13 14 14 11 8 7 8 7 4 3 1 2 5 5 6 6 8 8 8 11 12 14 17 15 10 10 12 12 12 13 15 15 16 16 14 13 13 11 11 12 12 9 8 8
5 6 6 13 11 15 20 21 14 9 6 9 12 17 23 17 2 8 8 9 18 16 9 13 12 11 12 11 12 12 9 4 9 11 11 12 14 15 12 9 9 9 10 11 11 11 11 9 7 7 6 3 2 4 4 4 5 5 4 6 8 12 16 10 5 7 9 9 10 11 12 11 13 15 13 12 13 12 11 11 12 12 11 11 9 8
5 5 4 8 8 8 8 13 10 7 4 11 12 14 18 13 7 8 13 12 11 15 14 12 15 13 12 8 13 9 10 9 9 11 14 15 15 14 12 11 10 11 8 6 7 7 6 7 8 6 4 2 1 3 4 5 6 5 5 5 11 12 2 5 7 8 8 10 10 10 10 11 10 10 11 10 11 12 11 8 9 11 11 9 10 11
5 8 7 9 7 11 8 10 11 13 3 18 15 10 11 7 9 9 11 9 8 9 13 13 12 13 12 15 14 11 14 15 13 14 16 17 17 18 17 15 14 11 10 11 10 7 5 7 8 7 3 1 3 4 4 6 7 7 6 11 12 5 6 7 8 9 9 10 11 11 11 10 12 12 10 11 11 13 12 10 10 10 10 11 11 12
3 12 10 10 8 12 10 9 5 3 11 11 10 5 10 4 7 6 5 8 8 6 11 10 11 11 13 14 15 17 15 14 17 16 17 17 17 17 17 15 13 9 7 6 6 8 6 7 6 7 5 4 5 6 7 9 8 8 10 14 5 6 7 9 9 11 11 10 11 11 11 11 12 11 10 12 12 12 13 12 12 11 11 11 12 12
3 5 4 9 6 6 5 10 11 14 10 5 5 6 4 6 3 1 5 4 9 7 7 9 12 12 12 14 15 14 16 15 16 16 16 18 18 17 17 17 15 13 13 12 12 9 6 9 10 9 7 5 6 6 7 7 9 9 11 7 8 9 10 10 11 12 12 12 12 12 11 11 11 11 11 12 13 14 13 13 14 13 11 12 10 9
9 14 10 10 7 11 14 9 13 13 12 14 13 6 9 6 6 8 9 8 7 9 10 9 13 13 13 12 14 16 13 17 19 18 17 16 16 16 15 15 15 13 12 11 9 10 9 9 8 8 9 9 5 6 5 6 7 9 11 6 9 9 10 11 12 12 13 12 11 12 12 13 11 11 12 12 11 12 12 14 14 13 12 10 8 7
3 4 8 8 10 11 15 11 13 11 17 17 13 6 5 5 5 5 6 6 6 8 10 10 10 14 14 14 15 16 20 17 17 19 18 16 16 15 15 16 17 16 15 15 14 11 11 8 9 9 9 10 6 5 6 7 8 10 3 8 8 9 10 11 12 12 12 13 12 12 13 15 12 11 11 12 10 10 10 11 12 13 13 13 10 9
7 2 10 8 14 12 15 12 16 13 11 12 4 4 3 4 3 2 2 5 6 6 6 10 11 11 12 13 14 16 19 19 17 18 18 17 16 16 16 16 17 18 17 13 13 13 11 11 10 11 10 11 11 7 8 8 10 9 5 5 8 9 10 12 13 14 14 15 13 12 13 13 15 16 12 13 13 13 12 12 12 15 17 17 15 16
10 6 7 4 11 11 13 12 10 7 11 14 2 4 3 6 4 6 6 7 6 8 8 8 9 12 12 14 14 14 16 18 17 17 18 18 18 16 16 18 18 17 18 17 15 13 12 12 12 11 12 13 10 8 8 10 10 7 8 8 9 10 12 12 12 11 13 13 12 13 13 13 14 14 13 13 12 11 12 13 14 13 9 9 11 14
5 9 12 9 9 10 11 6 3 9 12 12 2 4 5 5 4 3 4 6 7 8 9 11 12 11 11 12 13 12 14 16 17 16 17 18 18 20 20 20 19 19 18 15 13 14 14 12 12 13 14 14 11 9 9 10 9 8 8 8 9 11 12 11 10 11 12 12 13 13 14 14 14 15 15 15 14 13 10 11 16 11 11 11 12 10
9 12 9 9 8 11 10 3 5 5 9 11 9 2 3 5 4 5 6 6 6 5 7 10 12 13 13 14 13 15 15 15 18 18 17 16 18 19 20 21 21 20 19 19 19 19 18 17 15 13 15 15 12 10 11 11 9 8 9 9 10 12 12 11 11 11 10 11 12 15 16 15 15 15 15 15 15 14 14 12 13 19 14 11 15 16
Wind_Direction
147 176 177 191 225 228 209 197 217 232 242 263 276 270 257 261 267 266 270 249 203 241 221 229 234 239 248 248 250 255 270 265 260 247 244 240 246 249 250 246 244 247 247 250 212 204 202 197 187 178 166 165 163 164 164 164 168 167 167 162 170 169 164 162 163 167 163 163 159 165 178 176 174 169 165 166 164 161 159 161 160 159 160 160 159 162
135 200 204 213 226 226 185 203 221 241 241 242 250 258 263 245 265 255 267 251 211 196 255 229 245 245 247 253 255 257 247 257 254 254 248 249 241 245 252 254 250 249 261 282 226 213 201 181 169 157 157 154 160 176 167 171 172 169 168 171 168 168 170 172 171 169 173 175 177 174 179 171 169 163 168 171 177 165 158 160 161 160 163 162 163 164
206 215 216 222 228 234 212 202 211 216 228 238 237 247 267 252 255 271 259 260 254 182 263 255 252 248 251 253 255 244 234 246 247 241 249 250 251 248 252 253 252 255 255 262 245 200 188 174 165 162 166 176 173 168 174 171 166 170 171 172 169 173 171 175 172 170 178 175 169 169 165 165 157 169 156 153 154 148 154 163 162 159 164 162 164 165
257 237 233 224 232 240 253 230 234 249 243 239 246 254 246 254 268 281 230 257 216 186 249 225 255 256 260 259 257 248 234 243 248 249 252 251 252 252 249 249 255 254 250 238 213 191 180 170 167 164 171 175 165 167 169 170 171 170 173 173 172 174 174 174 178 176 168 159 139 116 132 133 136 160 150 133 129 141 143 164 168 166 167 166 167 169
228 200 207 199 209 217 240 237 226 239 258 239 235 241 256 246 240 234 270 310 268 281 276 295 279 267 224 252 256 251 235 245 254 259 261 259 250 250 257 262 255 252 238 220 202 189 167 168 180 180 176 164 170 174 174 173 175 176 177 175 174 175 178 178 174 169 153 138 128 120 104 99 95 89 129 134 159 169 168 160 179 181 173 170 168 170
255 244 129 184 207 220 232 249 218 202 255 252 236 217 234 240 250 255 275 330 314 310 244 214 301 270 201 220 235 234 237 230 242 244 252 251 249 255 255 247 253 249 220 197 192 188 184 182 172 170 168 175 177 181 182 176 175 170 174 174 176 175 177 176 174 167 161 164 157 152 154 163 167 172 175 183 180 178 182 186 173 166 173 168 170 173
234 213 187 183 205 222 221 233 219 182 239 257 247 189 230 235 239 259 279 344 274 260 292 117 214 290 152 235 217 237 228 240 246 230 242 245 244 246 251 249 248 234 219 217 200 179 174 184 174 180 181 184 183 187 173 172 175 173 173 176 177 176 177 175 173 170 168 169 174 176 178 176 178 179 197 186 179 179 176 161 174 176 175 174 169 173
177 212 193 211 208 214 212 240 229 190 224 255 183 178 203 231 237 244 237 207 253 239 269 278 115 290 292 238 210 203 212 227 235 242 246 245 242 239 243 250 248 220 203 189 191 190 188 181 181 185 190 186 190 172 168 172 173 175 176 175 177 176 176 176 173 176 178 177 179 180 183 184 187 190 184 180 181 176 168 171 175 170 177 174 172 170
173 219 193 213 213 211 222 223 218 176 199 245 275 153 204 211 231 202 201 233 243 6 281 166 133 290 259 265 198 184 215 238 243 243 244 242 238 241 243 242 249 223 200 186 186 190 188 190 195 188 187 192 164 164 174 179 176 172 173 174 175 177 176 177 179 180 185 183 182 183 181 189 199 187 180 172 168 169 169 171 173 175 174 174 175 173
327 185 221 194 169 217 228 249 163 181 223 275 149 98 77 67 83 80 241 328 332 34 270 165 160 215 280 259 204 188 203 216 228 233 238 239 228 234 241 244 248 229 199 201 198 190 192 194 191 185 164 162 184 178 173 168 165 168 169 175 178 183 181 180 183 184 186 186 181 186 191 190 185 177 160 168 171 172 171 176 176 175 175 176 174 177
242 305 217 129 209 228 121 153 168 229 232 94 76 81 358 23 8 23 78 96 19 258 260 152 201 166 271 284 175 146 207 208 219 238 253 257 251 250 247 246 251 221 201 201 198 197 191 171 167 157 175 180 164 174 172 172 172 170 174 179 183 187 182 182 186 185 189 188 189 193 191 190 184 178 167 168 178 173 174 179 177 176 177 178 180 173
258 296 169 252 93 73 102 80 358 71 347 142 185 131 24 317 18 32 348 56 201 269 207 172 177 175 238 281 249 196 215 205 200 207 225 231 238 240 241 243 247 227 194 186 170 167 154 151 173 171 179 177 177 168 180 179 178 178 179 179 185 187 188 187 188 189 193 192 196 197 192 192 188 178 180 181 179 179 179 177 175 173 170 181 174 176
261 243 219 342 227 158 137 176 310 12 8 138 89 67 191 267 21 318 42 312 199 242 203 194 173 253 236 248 261 293 284 278 244 212 208 219 231 238 244 240 242 198 166 168 168 161 168 177 181 188 183 172 182 188 187 186 184 182 181 182 184 192 191 190 189 193 194 196 199 199 197 196 186 188 186 185 183 180 179 176 172 173 178 172 177 184
271 274 216 224 17 215 135 204 239 330 228 142 164 157 150 243 238 254 262 239 290 274 219 207 172 234 269 294 217 252 253 227 223 226 217 217 222 231 234 238 229 175 176 172 169 174 179 184 189 188 182 186 187 188 189 189 188 188 188 189 191 196 191 191 191 194 195 201 202 201 201 196 191 193 190 190 185 184 182 178 178 178 178 178 184 178
299 299 229 132 240 184 183 207 205 214 168 206 147 157 190 183 151 186 219 237 231 252 281 216 110 233 14 249 225 209 230 231 226 227 235 238 232 228 246 286 131 155 167 169 175 180 185 189 185 185 187 187 190 190 189 190 190 186 192 193 198 196 196 193 196 193 199 202 201 202 203 199 198 197 194 195 187 180 181 183 180 182 178 180 179 182
215 243 267 178 197 158 178 214 210 153 336 215 154 222 300 236 171 227 228 242 276 349 312 179 209 194 225 290 307 306 315 302 273 249 241 246 251 258 257 222 184 168 170 178 182 192 196 192 186 184 187 191 189 191 192 193 189 190 196 196 200 199 195 195 194 198 200 200 198 200 201 203 198 197 196 195 192 189 185 181 181 181 181 179 170 168
249 253 265 203 32 170 196 182 195 147 212 230 127 186 217 202 191 264 328 274 90 347 259 248 282 269 320 289 268 265 270 267 268 276 280 266 247 235 234 222 195 185 179 183 190 193 194 195 200 195 190 189 187 189 194 195 194 195 193 194 199 200 194 197 199 199 198 198 195 202 202 199 198 196 196 196 193 186 183 181 182 179 177 166 166 161
234 254 82 152 246 274 55 90 349 230 113 102 182 230 24 78 130 162 223 331 257 236 269 293 266 284 339 286 332 13 334 289 267 249 246 240 235 226 229 196 192 195 203 217 220 211 203 199 197 198 199 196 196 196 196 199 199 199 197 196 197 195 197 201 197 197 196 196 201 202 203 203 201 199 198 192 188 183 179 182 178 169 168 174 164 160
231 270 261 254 210 323 0 95 301 269 149 161 185 232 147 252 258 249 92 250 262 253 262 251 284 273 241 267 349 302 276 281 275 258 259 257 239 230 217 200 217 173 168 202 210 206 206 205 206 203 203 202 202 203 206 203 197 199 202 201 199 201 204 198 192 195 200 200 204 203 203 202 201 199 195 189 180 180 186 185 180 176 170 155 160 154
335 268 257 348 150 327 19 130 228 195 286 158 52 335 227 115 187 149 196 186 188 253 264 271 271 274 248 182 248 282 297 305 296 296 251 237 258 258 237 216 191 194 204 209 216 217 217 215 209 204 203 197 199 198 198 195 196 204 205 198 204 209 201 192 197 198 202 205 204 204 202 205 204 199 194 188 180 185 191 187 177 169 166 168 156 160
292 262 265 263 312 38 222 189 216 166 193 223 228 253 317 211 222 132 285 193 214 238 229 258 264 264 267 195 144 221 16 16 327 287 277 293 250 225 210 186 192 193 201 211 209 214 215 217 216 215 214 215 203 194 185 191 201 206 198 209 207 201 199 200 204 199 208 200 204 202 203 203 197 198 192 185 188 187 188 185 181 176 165 152 167 157
234 265 264 335 332 241 258 222 201 208 202 200 191 212 208 206 239 254 255 218 246 233 240 243 252 262 278 123 145 163 93 42 17 145 5 342 328 300 245 212 180 185 218 209 211 212 216 221 220 219 206 196 190 198 199 202 198 199 203 206 204 204 206 206 205 202 204 198 200 202 203 198 195 191 188 191 190 191 185 183 183 172 161 168 164 163
165 187 273 292 286 296 287 266 253 244 285 295 250 268 227 235 226 228 254 232 276 253 273 251 268 238 264 100 329 305 329 329 246 330 313 287 270 266 268 251 227 221 207 212 218 220 221 217 210 202 199 196 198 203 201 194 197 204 208 205 204 201 210 207 208 203 197 195 198 202 196 186 189 183 184 189 193 195 187 182 178 174 170 165 161 164
30 313 350 292 277 290 304 308 314 239 212 308 300 261 249 236 209 229 239 246 258 149 235 250 244 261 259 288 294 294 358 360 319 313 310 306 298 292 284 308 305 285 259 248 243 243 232 236 239 199 202 207 206 198 198 200 205 208 202 201 202 208 213 208 204 194 192 195 198 192 185 190 185 178 183 189 188 189 183 174 175 178 176 165 159 161
38 269 89 310 317 303 304 316 297 303 78 204 183 212 220 240 251 260 285 5 267 216 256 258 262 264 267 279 276 295 295 288 284 286 279 261 256 274 284 274 264 254 261 264 240 232 217 196 197 207 208 208 209 210 206 203 203 201 207 201 203 212 211 204 195 188 193 193 192 188 190 189 183 185 185 188 182 184 172 171 168 177 178 166 164 159
214 182 197 245 243 259 264 256 251 258 241 263 265 264 238 203 232 230 247 233 248 237 238 244 257 247 256 311 297 284 283 285 278 270 272 260 232 237 253 254 251 248 246 242 242 198 206 212 210 210 209 212 215 210 207 207 204 204 206 207 207 209 196 200 189 194 189 192 190 193 192 191 188 190 189 186 184 178 171 167 171 172 175 174 165 158
224 162 201 221 224 230 234 242 253 122 309 264 263 267 277 290 274 240 311 255 245 255 247 243 250 260 269 283 278 276 274 271 274 277 272 271 269 257 252 240 230 236 230 229 226 228 242 255 231 218 214 214 211 206 208 205 205 205 205 208 204 203 197 192 186 191 191 192 195 191 194 192 195 190 187 186 180 169 168 170 169 170 173 174 167 163
132 217 214 225 224 230 235 239 245 249 252 252 253 259 265 259 258 269 258 253 273 302 264 244 259 273 267 265 267 274 276 275 277 278 278 268 254 256 257 258 264 264 263 268 258 247 234 232 231 227 221 216 217 217 215 211 208 204 202 205 203 200 195 191 188 190 193 191 194 196 196 196 189 187 185 177 168 169 170 167 169 172 168 165 170 169
173 229 228 225 236 225 228 234 240 248 244 246 247 249 249 256 262 258 252 249 249 246 255 264 279 269 260 256 265 266 267 274 281 280 275 270 270 259 252 257 260 262 268 266 238 237 231 229 237 232 227 222 221 215 214 212 214 213 216 219 208 197 201 192 186 189 191 191 196 200 194 183 182 179 174 171 168 170 171 170 168 164 164 166 165 164
200 242 234 226 240 228 227 230 235 239 246 248 246 247 249 253 254 253 255 255 253 254 258 263 259 258 256 256 252 257 265 272 273 274 275 274 267 262 260 256 260 266 273 266 237 229 226 226 232 232 225 222 213 213 213 214 214 211 209 210 201 198 201 174 190 188 189 193 198 190 180 180 177 176 171 171 174 173 167 164 162 160 160 162 159 155
207 227 204 241 245 242 234 233 232 237 239 248 248 248 250 252 251 248 250 254 259 264 262 257 253 255 253 252 255 258 260 263 268 269 270 270 268 267 266 264 264 264 265 251 231 232 234 230 230 231 224 221 216 214 212 211 211 210 212 210 201 201 191 183 187 189 189 196 188 177 173 174 178 170 176 175 168 166 164 162 158 158 158 157 158 158
189 249 228 239 244 240 228 237 232 234 234 238 246 250 250 246 248 248 246 242 242 249 248 250 254 253 250 251 257 255 258 256 256 258 261 264 269 272 268 267 268 262 247 245 233 229 235 233 231 230 224 221 219 216 214 214 215 207 213 206 203 199 177 182 187 189 192 188 174 175 175 176 170 172 174 169 171 166 163 157 157 161 162 160 161 163
202 234 224 227 243 242 228 233 234 234 234 232 225 232 238 243 244 248 247 246 237 239 246 246 246 243 248 245 253 254 252 250 249 251 257 261 266 273 277 274 271 266 251 243 233 233 236 231 227 227 224 224 222 218 218 212 203 204 209 202 204 166 173 185 188 187 185 179 176 177 174 171 172 173 172 175 168 164 162 163 164 166 166 171 168 160
226 242 251 227 256 250 229 241 234 235 220 223 204 216 222 235 240 244 244 242 243 233 239 236 249 253 255 250 245 250 252 251 249 251 253 265 279 279 274 268 265 265 256 237 232 235 240 230 229 226 224 225 225 218 219 203 198 209 205 190 154 169 183 180 185 183 182 175 178 176 174 171 172 174 174 168 165 164 166 168 173 169 164 155 155 157
246 245 247 228 256 256 237 248 246 228 243 215 212 213 218 228 233 239 242 241 246 247 249 252 252 250 249 252 254 254 254 259 260 264 268 269 257 260 265 270 272 270 261 244 243 241 231 221 224 228 234 238 233 228 218 207 209 197 150 161 173 177 172 182 178 179 177 178 178 173 174 173 172 171 168 166 164 165 168 171 165 165 166 163 166 167
245 246 254 237 246 266 240 227 247 243 121 275 205 211 218 233 233 243 251 251 255 251 250 252 254 258 256 258 260 261 263 265 269 269 273 272 272 275 277 276 277 277 266 246 239 238 224 216 217 218 225 229 219 221 203 209 189 174 187 163 170 171 175 173 176 178 173 178 180 179 176 172 172 169 167 166 167 169 172 173 170 168 166 162 162 162
231 237 233 260 217 251 244 241 247 277 273 174 100 208 190 217 215 221 242 245 248 282 296 289 286 281 281 282 282 279 274 272 271 276 285 337 349 350 339 322 311 305 301 291 270 262 249 223 217 220 224 225 208 204 208 191 165 168 154 165 168 165 168 168 177 181 182 183 180 178 175 174 171 170 169 170 171 175 174 171 170 169 166 165 168 167
225 231 232 251 230 232 254 256 263 254 251 248 226 222 210 216 210 220 228 257 45 12 21 25 15 10 6 0 354 328 310 312 282 283 17 355 355 348 342 346 348 346 341 328 324 316 305 301 299 283 237 222 217 210 180 156 158 155 161 166 160 160 172 176 187 184 182 184 180 177 174 174 172 171 172 173 178 176 173 168 166 170 173 172 170 174
261 241 243 240 254 243 247 248 253 263 264 26 350 336 321 300 256 254 254 254 26 358 6 16 9 6 14 4 349 355 29 22 344 339 336 353 338 338 336 336 341 342 341 343 333 332 328 321 304 302 299 257 227 32 85 122 136 146 165 166 169 170 171 190 189 183 188 186 175 173 173 172 173 174 174 178 178 173 170 172 171 165 166 176 173 171
338 286 258 254 261 258 267 266 268 272 297 354 335 331 316 312 287 153 243 172 350 340 338 13 6 349 5 357 352 8 26 1 336 323 325 323 327 313 315 328 333 336 336 338 343 350 341 339 7 17 22 26 53 101 110 130 144 162 168 174 162 176 191 195 197 192 173 162 168 170 170 173 174 175 176 177 170 172 172 163 159 166 165 167 167 162
338 333 301 286 283 265 255 257 256 248 92 8 350 346 352 326 103 192 238 0 320 312 344 3 357 344 347 346 4 339 343 316 292 291 304 308 315 322 324 327 320 316 323 332 333 339 351 355 9 356 343 352 74 101 115 120 137 171 173 167 177 199 208 195 145 146 164 159 162 169 172 170 174 173 175 173 169 163 161 167 167 162 164 158 155 152
317 282 264 292 288 306 319 299 293 327 65 7 15 36 9 3 344 1 309 300 316 319 342 337 341 339 334 345 332 315 300 295 287 291 300 307 308 304 309 310 316 319 314 310 318 341 342 338 341 353 5 359 79 115 136 142 159 172 171 169 207 218 98 122 148 140 147 162 165 164 166 168 165 164 164 161 157 161 163 162 160 162 157 153 149 151
285 307 289 298 307 293 273 282 284 276 51 31 355 8 49 55 279 285 315 330 317 331 325 337 341 332 330 323 318 306 305 308 310 312 314 314 317 317 317 318 316 314 312 322 328 324 329 330 321 316 286 219 176 168 171 158 170 178 179 202 216 153 147 137 146 152 153 156 161 163 162 161 161 161 160 162 164 160 160 157 157 157 155 151 150 151
331 291 278 259 240 259 255 245 227 16 335 353 36 359 325 314 292 302 304 335 334 350 343 324 337 333 333 324 325 325 323 322 324 327 324 321 321 319 317 317 313 303 294 280 267 287 295 288 273 277 251 203 191 184 179 175 181 187 192 220 178 153 148 155 152 154 156 159 161 158 160 161 159 159 160 161 159 161 158 162 161 158 161 161 158 156
177 207 278 289 331 307 282 300 313 321 319 315 355 319 328 8 28 279 2 346 347 348 347 338 328 334 339 332 327 328 321 327 320 318 320 318 317 318 318 318 319 317 312 313 309 299 287 281 282 279 269 240 211 203 195 191 189 192 211 215 159 167 165 160 159 156 163 162 161 161 157 153 158 159 161 164 163 163 165 164 163 163 169 166 169 159
327 305 321 326 284 302 288 294 303 303 312 318 333 4 35 27 38 28 18 2 350 339 337 333 328 326 327 331 324 317 314 314 314 313 310 308 306 307 309 310 311 313 310 308 307 305 301 296 286 285 279 279 249 234 220 215 198 202 224 159 171 169 166 160 160 165 164 162 160 159 154 152 152 156 162 165 170 171 171 168 170 166 165 170 162 157
282 309 299 271 306 313 285 314 291 309 310 315 325 60 68 56 41 36 13 338 328 329 326 322 319 318 317 318 315 311 310 311 308 306 306 306 306 306 308 309 307 308 312 311 308 311 308 300 289 281 274 276 269 241 241 226 229 233 210 165 173 168 165 166 166 166 164 164 162 156 160 160 161 159 163 168 168 169 172 176 174 168 168 169 165 166
279 295 298 277 276 264 279 297 299 301 290 284 299 85 21 358 360 35 326 311 308 308 307 307 315 312 315 314 312 311 307 308 309 308 310 309 309 310 310 308 307 307 305 303 303 306 301 293 282 274 269 264 263 239 237 230 233 231 203 172 168 167 166 173 175 173 175 170 165 164 165 166 162 162 167 174 171 171 177 187 184 177 177 174 173 168
268 306 257 252 272 282 279 278 274 311 297 286 307 125 22 349 342 328 332 318 313 314 316 318 311 308 314 304 307 308 305 305 310 312 311 312 311 311 310 308 305 304 305 307 305 299 292 291 285 273 267 265 260 243 234 235 233 220 197 183 172 169 174 184 184 177 171 168 164 167 170 167 169 172 171 173 175 181 183 182 186 185 176 179 173 172
275 257 260 275 280 274 276 275 76 314 294 296 281 97 359 308 294 283 311 319 324 324 324 318 310 303 298 299 305 308 306 305 308 314 313 311 309 311 312 310 309 308 306 305 308 306 298 289 281 280 276 271 267 252 244 243 234 215 203 180 177 175 181 181 178 180 180 178 177 171 170 172 173 176 174 173 174 170 174 195 190 184 176 171 183 191
235 255 261 258 254 267 272 239 182 232 270 255 278 33 337 301 322 328 312 318 313 310 316 311 304 304 303 306 311 310 307 305 307 313 312 310 309 311 310 311 311 310 308 311 312 307 302 300 294 283 274 272 268 256 250 246 233 211 198 187 182 183 187 176 182 190 187 184 189 184 181 179 176 176 177 176 171 171 169 163 180 190 189 183 178 178